Orbital Elements at Epoch 2459200.5 (2020-Dec-17.0) TDB
Reference: JPL 38 (heliocentric ecliptic J2000)
Element | Value | Uncertainty (1-sigma) | Units |
e | .1468151438939836 | 9.4113e-09 | |
a | 2.564682928360005 | 1.0593e-08 | au |
q | 2.188148635190387 | 2.2265e-08 | au |
i | 14.10813837814801 | 1.2609e-06 | deg |
node | 150.0460018666143 | 2.7655e-06 | deg |
peri | 267.4154383428834 | 1.2712e-05 | deg |
M | 120.8203264893836 | 1.177e-05 | deg |
tp | 2458697.015097282022 (2019-Aug-01.51509728) | 4.8371e-05 | TDB |
period | 1500.199264851341 4.11 | 9.2942e-06 2.545e-08 | d yr |
n | .2399681218585809 | 1.4867e-09 | deg/d |
Q | 2.941217221529622 | 1.2148e-08 | au |
|
| | Orbit Determination Parameters
Additional Information
|